This is the latest recevied weather packets stored in our database for station/object W6JCZ-13. If no packets are shown the sender has not sent any weather packets the latest 10 day(s).
| Time | Temp. | Humidity | Pressure | Rain* | Wind** | Luminosity | Snow |
|---|---|---|---|---|---|---|---|
| 1787903416 | 20° C | 60% | 1010.2 hPa | 0 mm | - | - | - |
| 1787902816 | 20° C | 57% | 1010 hPa | 0 mm | - | - | - |
| 1787902216 | 20° C | 57% | 1010.1 hPa | 0 mm | - | - | - |
| 1787901618 | 20° C | 58% | 1010 hPa | 0 mm | - | - | - |
| 1787901018 | 20° C | 59% | 1009.9 hPa | 0 mm | - | - | - |
| 1787900418 | 20.56° C | 58% | 1010 hPa | 0 mm | - | - | - |
| 1787899816 | 20.56° C | 57% | 1009.9 hPa | 0 mm | - | - | - |
| 1787899216 | 21.11° C | 56% | 1010 hPa | 0 mm | - | - | - |
| 1787898616 | 21.11° C | 56% | 1010.2 hPa | 0 mm | - | - | - |
| 1787898016 | 21.67° C | 56% | 1010.2 hPa | 0 mm | - | - | - |
| 1787897416 | 21.67° C | 55% | 1010.2 hPa | 0 mm | - | - | - |
| 1787896816 | 21.67° C | 55% | 1010.3 hPa | 0 mm | - | - | - |
| 1787896216 | 22.22° C | 54% | 1010.3 hPa | 0 mm | - | - | - |
| 1787895616 | 22.78° C | 54% | 1010.4 hPa | 0 mm | - | - | - |
| 1787895016 | 22.78° C | 53% | 1010.3 hPa | 0 mm | - | - | - |
| 1787894416 | 23.33° C | 52% | 1010.3 hPa | 0 mm | - | - | - |
| 1787893816 | 23.89° C | 49% | 1010.4 hPa | 0 mm | - | - | - |
| 1787893216 | 23.89° C | 48% | 1010.5 hPa | 0 mm | - | - | - |
| 1787892616 | 25° C | 47% | 1010.5 hPa | 0 mm | - | - | - |
| 1787892016 | 25° C | 47% | 1010.5 hPa | 0 mm | - | - | - |
| 1787891416 | 26.11° C | 45% | 1010.5 hPa | 0 mm | - | - | - |
| 1787890815 | 26.11° C | 43% | 1010.5 hPa | 0 mm | - | - | - |
| 1787890216 | 26.67° C | 42% | 1010.4 hPa | 0 mm | - | - | - |
| 1787889616 | 26.67° C | 40% | 1010.3 hPa | 0 mm | - | - | - |
| 1787889016 | 27.22° C | 37% | 1010.2 hPa | 0 mm | - | - | - |
* Rain latest hour (hover to see other rain measurements)
** Current wind speed in m/s (hover to see current wind gust speed)